User: anonymous   Login
Location: Bailleul
(50.3375°N, 2.8513°E)
Time: 18:05:30
(UTC+00:00)
Language:

Cosmos 2360 Rocket - Orbit

View from above orbital plane
View from above orbital plane
View from above satellite
View from above satellite

Ground track
Ground track

The orbit data is extracted from the following two-line orbital elements,

1 25407U 98045B   21264.54938627  .00000184  00000-0  11782-3 0  9998
2 25407  71.0138   8.5281 0008171 335.1971  24.8758 14.15840559196619
Epoch (UTC): 21 September 2021 13:11:06
Eccentricity: 0.0008171
inclination: 71.0138°
perigee height: 833 km
apogee height: 845 km
right ascension of ascending node: 8.5281°
argument of perigee: 335.1971°
revolutions per day: 14.15840559
mean anomaly at epoch: 24.8758°
orbit number at epoch: 19661

The dashed part of the orbit path shows where the satellite is in the earth's shadow,  

DLR